QPF
0.03 0.02 0.02 0.02 0.02 0.02 0.03 0.05 0.05 0.06 0.05 0.05 0.05 0.06 0.07 0.07 0.07 0.07 0.07 0.07 0.07 0.08 0.08 0.08 0.11 0.12 0.12 0.11 0.10 0.10 0.10 0.09 0.10 0.10 0.09 0.08 0.07 0.06 0.06 0.05 0.06 0.06 0.06
0.03 0.03 0.03 0.02 0.02 0.03 0.04 0.05 0.05 0.05 0.05 0.05 0.06 0.07 0.08 0.08 0.07 0.07 0.06 0.05 0.05 0.06 0.06 0.07 0.09 0.09 0.10 0.10 0.09 0.10 0.09 0.08 0.10 0.10 0.11 0.10 0.09 0.08 0.05 0.04 0.04 0.04 0.05
0.02 0.03 0.04 0.04 0.04 0.04 0.04 0.03 0.03 0.04 0.04 0.06 0.06 0.07 0.07 0.07 0.07 0.07 0.08 0.07 0.06 0.07 0.06 0.07 0.06 0.06 0.07 0.08 0.08 0.08 0.09 0.09 0.09 0.10 0.11 0.11 0.09 0.08 0.06 0.05 0.05 0.06 0.06
0.04 0.04 0.04 0.03 0.04 0.04 0.05 0.04 0.05 0.06 0.06 0.06 0.06 0.07 0.08 0.08 0.09 0.10 0.08 0.06 0.06 0.07 0.07 0.08 0.07 0.07 0.06 0.07 0.07 0.08 0.10 0.10 0.09 0.09 0.10 0.10 0.10 0.09 0.07 0.06 0.05 0.05 0.04
0.04 0.03 0.04 0.03 0.03 0.03 0.04 0.05 0.07 0.08 0.08 0.06 0.06 0.07 0.09 0.10 0.11 0.10 0.09 0.08 0.06 0.06 0.06 0.07 0.07 0.06 0.06 0.06 0.08 0.11 0.11 0.10 0.09 0.09 0.09 0.09 0.09 0.10 0.10 0.08 0.05 0.05 0.06
0.02 0.02 0.03 0.03 0.03 0.03 0.02 0.03 0.06 0.06 0.06 0.06 0.05 0.08 0.08 0.09 0.09 0.09 0.10 0.09 0.08 0.06 0.05 0.05 0.06 0.06 0.06 0.06 0.08 0.09 0.09 0.09 0.10 0.10 0.10 0.09 0.10 0.09 0.09 0.08 0.07 0.07 0.07
0.02 0.03 0.05 0.04 0.02 0.02 0.02 0.02 0.05 0.06 0.06 0.06 0.06 0.07 0.07 0.07 0.08 0.07 0.07 0.08 0.07 0.05 0.07 0.07 0.07 0.07 0.07 0.07 0.08 0.08 0.07 0.07 0.09 0.09 0.09 0.08 0.08 0.08 0.08 0.08 0.06 0.06 0.06
0.05 0.05 0.06 0.04 0.02 0.02 0.02 0.02 0.04 0.07 0.07 0.06 0.07 0.06 0.06 0.06 0.06 0.07 0.06 0.07 0.06 0.06 0.08 0.08 0.09 0.07 0.07 0.07 0.08 0.07 0.07 0.07 0.07 0.08 0.08 0.08 0.07 0.07 0.07 0.08 0.08 0.07 0.05
0.04 0.05 0.06 0.05 0.03 0.02 0.01 0.02 0.07 0.10 0.08 0.07 0.06 0.05 0.05 0.05 0.06 0.07 0.05 0.04 0.05 0.06 0.07 0.07 0.08 0.07 0.07 0.07 0.07 0.06 0.07 0.08 0.08 0.07 0.07 0.06 0.06 0.06 0.06 0.07 0.08 0.08 0.06
0.05 0.06 0.05 0.04 0.03 0.02 0.02 0.03 0.05 0.08 0.07 0.07 0.07 0.05 0.05 0.06 0.06 0.06 0.06 0.05 0.04 0.05 0.06 0.06 0.08 0.07 0.07 0.07 0.08 0.07 0.08 0.09 0.09 0.08 0.07 0.06 0.05 0.05 0.06 0.06 0.06 0.07 0.07
0.05 0.05 0.05 0.04 0.03 0.02 0.02 0.03 0.04 0.05 0.06 0.06 0.08 0.07 0.06 0.06 0.08 0.08 0.07 0.05 0.05 0.05 0.05 0.06 0.06 0.06 0.06 0.07 0.07 0.07 0.08 0.08 0.08 0.08 0.07 0.06 0.07 0.07 0.07 0.08 0.08 0.08 0.08
0.03 0.04 0.05 0.05 0.05 0.04 0.04 0.04 0.04 0.04 0.05 0.08 0.09 0.08 0.07 0.06 0.07 0.07 0.06 0.05 0.05 0.06 0.06 0.05 0.04 0.05 0.06 0.08 0.08 0.07 0.08 0.08 0.07 0.07 0.07 0.08 0.08 0.11 0.11 0.11 0.10 0.09 0.08
0.05 0.05 0.05 0.05 0.06 0.06 0.06 0.05 0.05 0.05 0.05 0.07 0.09 0.07 0.07 0.07 0.07 0.08 0.08 0.06 0.05 0.06 0.06 0.05 0.04 0.05 0.07 0.09 0.10 0.09 0.08 0.07 0.08 0.08 0.08 0.07 0.08 0.08 0.08 0.09 0.10 0.09 0.08
0.06 0.06 0.05 0.05 0.05 0.06 0.06 0.07 0.05 0.04 0.05 0.05 0.07 0.07 0.08 0.08 0.08 0.08 0.08 0.08 0.07 0.06 0.05 0.05 0.05 0.05 0.06 0.07 0.08 0.09 0.09 0.08 0.08 0.08 0.07 0.07 0.07 0.08 0.07 0.06 0.07 0.08 0.10
0.08 0.07 0.06 0.06 0.04 0.05 0.06 0.08 0.07 0.05 0.08 0.06 0.06 0.06 0.06 0.06 0.06 0.07 0.07 0.07 0.06 0.05 0.05 0.05 0.06 0.07 0.05 0.04 0.05 0.07 0.06 0.07 0.08 0.08 0.07 0.06 0.06 0.07 0.06 0.04 0.05 0.06 0.08
0.07 0.06 0.04 0.03 0.03 0.03 0.03 0.04 0.05 0.04 0.08 0.08 0.05 0.05 0.04 0.05 0.05 0.05 0.06 0.06 0.06 0.06 0.06 0.07 0.07 0.06 0.04 0.05 0.05 0.06 0.05 0.06 0.06 0.07 0.07 0.05 0.05 0.05 0.04 0.03 0.03 0.04 0.05
0.04 0.03 0.03 0.03 0.04 0.03 0.03 0.02 0.03 0.04 0.04 0.06 0.06 0.05 0.04 0.05 0.05 0.04 0.05 0.06 0.06 0.07 0.07 0.09 0.07 0.06 0.06 0.04 0.03 0.03 0.03 0.04 0.06 0.07 0.07 0.06 0.05 0.05 0.05 0.04 0.03 0.03 0.03
0.03 0.02 0.03 0.03 0.04 0.04 0.03 0.03 0.02 0.04 0.05 0.05 0.06 0.05 0.04 0.05 0.05 0.04 0.04 0.06 0.07 0.07 0.07 0.08 0.06 0.06 0.04 0.01 0.01 0.01 0.02 0.04 0.06 0.06 0.06 0.06 0.05 0.04 0.04 0.03 0.03 0.04 0.03
0.05 0.03 0.03 0.02 0.03 0.04 0.03 0.02 0.02 0.04 0.06 0.07 0.06 0.06 0.06 0.05 0.04 0.04 0.04 0.05 0.05 0.06 0.07 0.06 0.04 0.04 0.03 0.00 0.00 0.01 0.02 0.04 0.05 0.05 0.05 0.05 0.05 0.03 0.03 0.04 0.05 0.06 0.06
0.05 0.05 0.03 0.02 0.03 0.04 0.04 0.04 0.04 0.05 0.07 0.06 0.05 0.06 0.06 0.04 0.04 0.04 0.04 0.05 0.06 0.05 0.05 0.03 0.03 0.04 0.03 0.01 0.00 0.01 0.03 0.04 0.05 0.06 0.05 0.03 0.01 0.01 0.01 0.02 0.04 0.04 0.04
0.03 0.03 0.02 0.03 0.03 0.03 0.03 0.04 0.03 0.03 0.05 0.03 0.03 0.04 0.04 0.03 0.03 0.03 0.04 0.04 0.04 0.03 0.04 0.04 0.04 0.04 0.02 0.01 0.00 0.00 0.02 0.03 0.03 0.04 0.04 0.02 0.00 0.00 0.00 0.01 0.02 0.01 0.01
0.01 0.01 0.02 0.02 0.04 0.04 0.03 0.02 0.02 0.03 0.03 0.02 0.02 0.02 0.02 0.01 0.01 0.02 0.02 0.02 0.03 0.03 0.04 0.05 0.04 0.03 0.02 0.01 0.01 0.00 0.00 0.01 0.02 0.03 0.03 0.02 0.01 0.01 0.01 0.01 0.01 0.00 0.01
0.01 0.01 0.02 0.03 0.04 0.04 0.03 0.02 0.02 0.02 0.02 0.02 0.03 0.03 0.02 0.02 0.01 0.01 0.02 0.02 0.02 0.03 0.03 0.03 0.03 0.03 0.01 0.01 0.00 0.00 0.00 0.00 0.01 0.02 0.02 0.01 0.01 0.01 0.01 0.01 0.00 0.01 0.01
0.01 0.02 0.02 0.02 0.03 0.03 0.03 0.03 0.03 0.02 0.02 0.03 0.04 0.04 0.04 0.03 0.02 0.02 0.03 0.03 0.03 0.03 0.03 0.02 0.02 0.01 0.01 0.01 0.01 0.01 0.01 0.01 0.01 0.02 0.03 0.02 0.02 0.02 0.02 0.02 0.02 0.02 0.02
0.01 0.01 0.01 0.02 0.02 0.03 0.03 0.03 0.03 0.02 0.01 0.03 0.04 0.05 0.05 0.03 0.02 0.01 0.02 0.02 0.01 0.01 0.01 0.01 0.00 0.00 0.01 0.00 0.00 0.01 0.01 0.01 0.01 0.01 0.03 0.04 0.05 0.05 0.05 0.04 0.04 0.03 0.03
0.01 0.01 0.01 0.01 0.02 0.03 0.04 0.03 0.02 0.01 0.02 0.02 0.03 0.05 0.04 0.02 0.01 0.00 0.00 0.00 0.00 0.00 0.00 0.00 0.00 0.01 0.01 0.01 0.01 0.01 0.01 0.01 0.01 0.01 0.02 0.03 0.04 0.05 0.04 0.04 0.04 0.03 0.03
MSLP
1013.70 1014.01 1014.31 1014.56 1014.72 1014.77 1014.68 1014.47 1014.18 1013.84 1013.51 1013.21 1012.96 1012.77 1012.62 1012.48 1012.34 1012.18 1011.99 1011.79 1011.58 1011.40 1011.26 1011.15 1011.08 1011.02 1010.95 1010.82 1010.63 1010.35 1010.00 1009.60 1009.16 1008.73 1008.34 1007.98 1007.68 1007.43 1007.20 1006.99 1006.78 1006.58 1006.39
1013.76 1014.04 1014.34 1014.60 1014.78 1014.86 1014.81 1014.65 1014.41 1014.12 1013.82 1013.55 1013.31 1013.12 1012.94 1012.77 1012.59 1012.39 1012.16 1011.93 1011.71 1011.53 1011.39 1011.29 1011.24 1011.19 1011.13 1011.01 1010.82 1010.56 1010.22 1009.82 1009.40 1008.99 1008.60 1008.25 1007.95 1007.68 1007.43 1007.18 1006.93 1006.68 1006.45
1013.75 1013.98 1014.25 1014.50 1014.70 1014.82 1014.83 1014.74 1014.56 1014.34 1014.11 1013.88 1013.68 1013.49 1013.32 1013.13 1012.92 1012.68 1012.42 1012.16 1011.91 1011.70 1011.54 1011.44 1011.37 1011.31 1011.24 1011.12 1010.93 1010.67 1010.35 1009.98 1009.58 1009.19 1008.83 1008.49 1008.19 1007.92 1007.65 1007.38 1007.11 1006.83 1006.56
1013.73 1013.87 1014.08 1014.31 1014.52 1014.67 1014.74 1014.72 1014.63 1014.49 1014.33 1014.17 1014.01 1013.85 1013.68 1013.49 1013.27 1013.00 1012.72 1012.42 1012.14 1011.89 1011.69 1011.55 1011.44 1011.35 1011.26 1011.12 1010.93 1010.68 1010.38 1010.03 1009.67 1009.31 1008.98 1008.67 1008.39 1008.12 1007.84 1007.56 1007.27 1006.96 1006.67
1013.71 1013.74 1013.87 1014.05 1014.26 1014.44 1014.56 1014.61 1014.60 1014.55 1014.46 1014.37 1014.26 1014.13 1013.99 1013.80 1013.57 1013.29 1012.98 1012.65 1012.33 1012.03 1011.79 1011.59 1011.44 1011.31 1011.18 1011.02 1010.82 1010.58 1010.29 1009.98 1009.65 1009.33 1009.03 1008.75 1008.49 1008.23 1007.96 1007.68 1007.37 1007.05 1006.74
1013.72 1013.62 1013.65 1013.78 1013.97 1014.15 1014.31 1014.42 1014.48 1014.50 1014.48 1014.44 1014.38 1014.30 1014.17 1014.00 1013.77 1013.48 1013.15 1012.79 1012.43 1012.10 1011.80 1011.55 1011.35 1011.17 1011.00 1010.81 1010.60 1010.36 1010.09 1009.80 1009.51 1009.22 1008.96 1008.71 1008.48 1008.24 1007.99 1007.71 1007.41 1007.09 1006.76
1013.74 1013.52 1013.46 1013.53 1013.67 1013.85 1014.02 1014.17 1014.27 1014.33 1014.37 1014.37 1014.35 1014.30 1014.20 1014.05 1013.82 1013.54 1013.20 1012.82 1012.43 1012.06 1011.72 1011.42 1011.17 1010.94 1010.73 1010.51 1010.29 1010.04 1009.78 1009.51 1009.24 1008.99 1008.76 1008.55 1008.35 1008.14 1007.92 1007.66 1007.38 1007.06 1006.74
1013.79 1013.47 1013.32 1013.31 1013.41 1013.55 1013.72 1013.86 1013.98 1014.07 1014.13 1014.17 1014.18 1014.15 1014.08 1013.94 1013.73 1013.45 1013.11 1012.73 1012.33 1011.93 1011.56 1011.22 1010.92 1010.65 1010.40 1010.15 1009.90 1009.65 1009.38 1009.12 1008.87 1008.64 1008.44 1008.27 1008.10 1007.94 1007.76 1007.54 1007.29 1007.00 1006.69
1013.87 1013.47 1013.24 1013.16 1013.19 1013.29 1013.42 1013.54 1013.65 1013.74 1013.81 1013.86 1013.89 1013.88 1013.82 1013.71 1013.52 1013.25 1012.93 1012.55 1012.15 1011.74 1011.35 1010.98 1010.65 1010.35 1010.06 1009.78 1009.50 1009.22 1008.94 1008.67 1008.43 1008.22 1008.04 1007.90 1007.78 1007.67 1007.54 1007.38 1007.18 1006.93 1006.65
1014.00 1013.53 1013.24 1013.09 1013.05 1013.09 1013.15 1013.23 1013.31 1013.38 1013.45 1013.50 1013.53 1013.54 1013.50 1013.41 1013.24 1013.00 1012.69 1012.33 1011.94 1011.54 1011.14 1010.77 1010.42 1010.08 1009.77 1009.45 1009.14 1008.83 1008.53 1008.24 1007.99 1007.78 1007.62 1007.50 1007.42 1007.36 1007.30 1007.20 1007.07 1006.87 1006.63
1014.19 1013.69 1013.35 1013.13 1013.02 1012.97 1012.97 1012.99 1013.02 1013.05 1013.10 1013.14 1013.18 1013.20 1013.18 1013.10 1012.96 1012.74 1012.46 1012.12 1011.75 1011.36 1010.98 1010.60 1010.24 1009.90 1009.56 1009.22 1008.88 1008.53 1008.20 1007.88 1007.61 1007.39 1007.23 1007.14 1007.09 1007.08 1007.07 1007.04 1006.96 1006.83 1006.64
1014.47 1013.96 1013.57 1013.28 1013.09 1012.96 1012.87 1012.82 1012.80 1012.79 1012.81 1012.85 1012.89 1012.91 1012.90 1012.84 1012.71 1012.52 1012.26 1011.94 1011.60 1011.23 1010.86 1010.50 1010.15 1009.81 1009.46 1009.11 1008.74 1008.37 1008.00 1007.65 1007.35 1007.11 1006.94 1006.85 1006.82 1006.84 1006.87 1006.89 1006.87 1006.79 1006.64
1014.84 1014.32 1013.89 1013.54 1013.26 1013.04 1012.87 1012.74 1012.66 1012.62 1012.61 1012.63 1012.67 1012.69 1012.69 1012.63 1012.52 1012.33 1012.09 1011.79 1011.46 1011.12 1010.78 1010.45 1010.12 1009.79 1009.45 1009.10 1008.73 1008.34 1007.94 1007.57 1007.24 1006.97 1006.78 1006.67 1006.64 1006.66 1006.71 1006.76 1006.77 1006.73 1006.61
1015.26 1014.73 1014.26 1013.85 1013.49 1013.18 1012.93 1012.73 1012.59 1012.51 1012.48 1012.49 1012.52 1012.54 1012.53 1012.47 1012.35 1012.17 1011.92 1011.63 1011.32 1011.00 1010.69 1010.39 1010.09 1009.80 1009.49 1009.16 1008.80 1008.41 1008.01 1007.62 1007.26 1006.96 1006.74 1006.60 1006.54 1006.54 1006.58 1006.63 1006.65 1006.62 1006.52
1015.68 1015.15 1014.64 1014.17 1013.73 1013.34 1013.01 1012.75 1012.56 1012.45 1012.40 1012.39 1012.41 1012.42 1012.40 1012.32 1012.18 1011.98 1011.72 1011.43 1011.12 1010.82 1010.53 1010.27 1010.02 1009.78 1009.52 1009.23 1008.90 1008.54 1008.15 1007.76 1007.39 1007.06 1006.81 1006.63 1006.52 1006.48 1006.48 1006.49 1006.49 1006.45 1006.35
1016.03 1015.50 1014.95 1014.42 1013.91 1013.45 1013.06 1012.74 1012.52 1012.38 1012.31 1012.30 1012.30 1012.30 1012.25 1012.15 1011.98 1011.74 1011.46 1011.15 1010.84 1010.55 1010.29 1010.06 1009.87 1009.68 1009.48 1009.26 1008.98 1008.67 1008.31 1007.94 1007.57 1007.22 1006.93 1006.70 1006.54 1006.44 1006.39 1006.35 1006.30 1006.22 1006.11
1016.25 1015.71 1015.13 1014.55 1013.98 1013.47 1013.03 1012.68 1012.43 1012.27 1012.20 1012.17 1012.16 1012.14 1012.07 1011.93 1011.72 1011.44 1011.13 1010.79 1010.47 1010.18 1009.95 1009.76 1009.62 1009.49 1009.37 1009.21 1009.01 1008.75 1008.45 1008.10 1007.74 1007.39 1007.07 1006.80 1006.59 1006.42 1006.30 1006.20 1006.09 1005.98 1005.83
1016.29 1015.74 1015.14 1014.52 1013.92 1013.36 1012.89 1012.52 1012.27 1012.11 1012.03 1012.00 1011.98 1011.93 1011.83 1011.66 1011.41 1011.10 1010.75 1010.39 1010.06 1009.78 1009.56 1009.41 1009.31 1009.25 1009.19 1009.11 1008.97 1008.78 1008.53 1008.22 1007.89 1007.54 1007.21 1006.90 1006.64 1006.42 1006.23 1006.07 1005.92 1005.76 1005.58
1016.17 1015.60 1014.98 1014.34 1013.72 1013.15 1012.67 1012.29 1012.04 1011.88 1011.81 1011.78 1011.75 1011.69 1011.57 1011.37 1011.10 1010.76 1010.39 1010.01 1009.67 1009.40 1009.20 1009.08 1009.02 1009.01 1009.01 1008.99 1008.92 1008.78 1008.58 1008.31 1007.99 1007.65 1007.31 1006.99 1006.69 1006.43 1006.21 1006.00 1005.81 1005.62 1005.43
1015.91 1015.33 1014.71 1014.06 1013.43 1012.86 1012.38 1012.02 1011.77 1011.63 1011.56 1011.53 1011.51 1011.44 1011.31 1011.10 1010.81 1010.46 1010.09 1009.72 1009.38 1009.12 1008.94 1008.85 1008.83 1008.86 1008.90 1008.92 1008.89 1008.79 1008.62 1008.38 1008.08 1007.75 1007.41 1007.07 1006.76 1006.48 1006.23 1006.01 1005.80 1005.60 1005.40
1015.58 1015.00 1014.37 1013.73 1013.11 1012.55 1012.08 1011.73 1011.50 1011.37 1011.31 1011.29 1011.27 1011.20 1011.07 1010.86 1010.58 1010.25 1009.89 1009.54 1009.23 1009.00 1008.85 1008.79 1008.80 1008.85 1008.91 1008.95 1008.94 1008.86 1008.70 1008.46 1008.17 1007.84 1007.50 1007.16 1006.85 1006.57 1006.32 1006.10 1005.90 1005.71 1005.52
1015.25 1014.67 1014.05 1013.41 1012.80 1012.26 1011.81 1011.48 1011.26 1011.13 1011.08 1011.06 1011.04 1010.97 1010.85 1010.66 1010.40 1010.10 1009.78 1009.47 1009.22 1009.03 1008.92 1008.90 1008.93 1009.00 1009.07 1009.11 1009.10 1009.00 1008.83 1008.59 1008.29 1007.95 1007.60 1007.27 1006.96 1006.69 1006.46 1006.26 1006.09 1005.93 1005.77
1014.96 1014.39 1013.77 1013.15 1012.56 1012.03 1011.60 1011.27 1011.05 1010.92 1010.86 1010.83 1010.80 1010.74 1010.63 1010.45 1010.23 1009.97 1009.71 1009.47 1009.28 1009.15 1009.10 1009.12 1009.18 1009.26 1009.34 1009.36 1009.33 1009.21 1009.01 1008.74 1008.42 1008.07 1007.72 1007.38 1007.08 1006.83 1006.63 1006.46 1006.33 1006.21 1006.09
1014.74 1014.17 1013.57 1012.96 1012.38 1011.87 1011.44 1011.11 1010.88 1010.73 1010.64 1010.59 1010.53 1010.46 1010.35 1010.19 1010.00 1009.80 1009.60 1009.44 1009.33 1009.27 1009.29 1009.36 1009.45 1009.55 1009.62 1009.64 1009.58 1009.43 1009.20 1008.90 1008.55 1008.19 1007.82 1007.49 1007.21 1006.98 1006.81 1006.69 1006.59 1006.52 1006.44
1014.57 1014.01 1013.42 1012.83 1012.26 1011.76 1011.32 1010.98 1010.72 1010.53 1010.40 1010.30 1010.21 1010.10 1009.98 1009.83 1009.67 1009.51 1009.38 1009.29 1009.25 1009.28 1009.37 1009.49 1009.63 1009.75 1009.83 1009.84 1009.77 1009.60 1009.34 1009.02 1008.65 1008.27 1007.91 1007.58 1007.32 1007.12 1006.98 1006.90 1006.85 1006.81 1006.77
1014.42 1013.88 1013.31 1012.73 1012.18 1011.67 1011.23 1010.86 1010.56 1010.32 1010.13 1009.97 1009.81 1009.66 1009.50 1009.34 1009.19 1009.06 1008.98 1008.95 1008.99 1009.09 1009.24 1009.43 1009.61 1009.77 1009.87 1009.88 1009.80 1009.63 1009.37 1009.04 1008.67 1008.29 1007.95 1007.64 1007.41 1007.24 1007.14 1007.09 1007.08 1007.08 1007.07
Thickness
5751 5749 5747 5745 5742 5738 5734 5732 5727 5724 5722 5718 5715 5713 5712 5712 5711 5709 5706 5703 5701 5699 5698 5695 5693 5692 5690 5689 5689 5686 5685 5684 5683 5680 5679 5682 5686 5686 5685 5685 5684 5685 5686
5743 5742 5741 5739 5735 5732 5729 5726 5721 5718 5715 5713 5710 5708 5706 5705 5705 5704 5702 5699 5697 5695 5694 5691 5689 5688 5686 5684 5683 5681 5678 5678 5678 5674 5670 5669 5672 5676 5680 5679 5678 5679 5680
5736 5732 5731 5731 5729 5726 5723 5721 5716 5713 5710 5707 5706 5703 5700 5699 5698 5696 5696 5695 5693 5691 5690 5687 5685 5683 5681 5679 5678 5676 5673 5671 5671 5670 5665 5660 5659 5663 5669 5671 5671 5670 5671
5731 5726 5724 5723 5722 5720 5718 5715 5711 5707 5704 5702 5699 5694 5691 5689 5690 5690 5691 5690 5690 5688 5686 5683 5681 5678 5677 5675 5674 5673 5670 5667 5664 5664 5663 5661 5658 5653 5654 5660 5662 5663 5664
5725 5721 5719 5718 5716 5714 5711 5707 5704 5701 5698 5696 5693 5689 5686 5685 5685 5685 5685 5685 5685 5684 5683 5680 5677 5675 5673 5671 5670 5668 5666 5664 5660 5658 5657 5655 5654 5651 5647 5647 5651 5654 5657
5722 5717 5715 5713 5709 5707 5704 5701 5697 5694 5692 5689 5687 5684 5681 5679 5679 5678 5678 5679 5679 5679 5678 5676 5673 5670 5668 5666 5665 5663 5662 5659 5657 5655 5653 5650 5647 5645 5644 5642 5643 5644 5649
5717 5711 5706 5704 5701 5698 5696 5694 5691 5687 5686 5684 5681 5679 5677 5675 5674 5673 5673 5673 5672 5672 5671 5670 5667 5665 5663 5662 5660 5659 5657 5655 5652 5650 5648 5646 5645 5643 5641 5639 5638 5639 5642
5710 5705 5702 5698 5696 5692 5690 5687 5685 5681 5679 5678 5675 5674 5672 5671 5670 5670 5670 5669 5668 5667 5667 5665 5663 5661 5659 5658 5656 5654 5653 5651 5648 5646 5643 5641 5640 5639 5637 5635 5633 5632 5633
5704 5701 5698 5695 5692 5689 5685 5682 5680 5676 5674 5672 5670 5669 5668 5666 5666 5666 5666 5665 5665 5664 5663 5660 5658 5657 5655 5653 5651 5649 5647 5646 5643 5641 5639 5637 5635 5635 5634 5633 5630 5626 5623
5700 5697 5695 5693 5691 5687 5683 5680 5676 5672 5670 5668 5666 5665 5664 5664 5663 5662 5661 5660 5660 5659 5658 5656 5654 5652 5651 5649 5646 5644 5643 5641 5639 5637 5635 5632 5631 5630 5630 5628 5626 5624 5620
5695 5693 5691 5691 5689 5685 5681 5677 5674 5671 5667 5665 5663 5661 5661 5661 5660 5659 5657 5656 5655 5655 5654 5652 5650 5648 5647 5645 5642 5640 5639 5637 5634 5632 5631 5629 5626 5624 5623 5622 5620 5618 5616
5692 5691 5689 5688 5685 5681 5677 5674 5672 5669 5666 5664 5660 5659 5658 5657 5656 5655 5654 5653 5652 5651 5651 5649 5646 5645 5643 5641 5638 5635 5634 5632 5629 5627 5625 5623 5622 5618 5616 5614 5613 5612 5610
5689 5688 5685 5684 5681 5677 5675 5672 5669 5667 5665 5662 5659 5657 5655 5654 5653 5653 5652 5651 5650 5648 5647 5646 5643 5641 5639 5637 5635 5632 5630 5628 5625 5623 5620 5618 5615 5612 5610 5608 5606 5605 5605
5685 5684 5682 5680 5677 5674 5672 5669 5667 5665 5663 5660 5658 5655 5654 5653 5652 5651 5650 5649 5648 5646 5644 5642 5640 5638 5636 5633 5630 5628 5626 5623 5621 5618 5616 5613 5610 5607 5605 5604 5601 5599 5597
5682 5679 5677 5675 5673 5671 5669 5666 5664 5663 5661 5659 5657 5655 5654 5653 5652 5650 5649 5648 5646 5644 5642 5639 5637 5634 5632 5628 5625 5623 5622 5618 5616 5613 5611 5608 5606 5603 5601 5599 5596 5594 5591
5677 5676 5674 5672 5669 5667 5665 5664 5662 5660 5660 5657 5655 5654 5653 5653 5651 5649 5647 5645 5643 5641 5638 5635 5632 5629 5627 5622 5619 5617 5616 5614 5611 5608 5606 5604 5601 5599 5596 5594 5591 5589 5585
5675 5673 5671 5669 5666 5665 5664 5662 5661 5659 5658 5655 5655 5654 5653 5651 5650 5648 5645 5642 5640 5637 5635 5632 5629 5625 5620 5617 5615 5613 5611 5610 5607 5604 5601 5599 5598 5594 5591 5589 5588 5585 5581
5673 5671 5670 5668 5666 5665 5663 5662 5660 5658 5657 5655 5653 5653 5651 5649 5648 5646 5643 5640 5638 5635 5633 5630 5627 5622 5617 5613 5611 5610 5609 5607 5604 5602 5598 5594 5591 5589 5585 5584 5582 5580 5577
5671 5670 5669 5667 5665 5663 5662 5660 5658 5657 5655 5653 5651 5650 5649 5647 5645 5643 5640 5638 5636 5633 5631 5629 5625 5620 5615 5610 5608 5606 5606 5603 5601 5598 5594 5591 5586 5582 5580 5578 5576 5573 5571
5670 5668 5668 5665 5663 5661 5660 5657 5656 5654 5652 5651 5650 5649 5647 5645 5643 5641 5638 5636 5634 5631 5628 5626 5623 5618 5613 5608 5605 5602 5601 5599 5596 5593 5589 5585 5581 5576 5574 5571 5569 5566 5564
5668 5667 5665 5662 5660 5660 5658 5654 5653 5651 5651 5650 5649 5647 5645 5643 5642 5639 5636 5633 5631 5629 5626 5623 5620 5616 5611 5605 5601 5597 5595 5592 5590 5588 5584 5580 5576 5572 5569 5565 5563 5560 5557
5666 5664 5661 5660 5659 5658 5655 5652 5651 5650 5650 5649 5646 5644 5643 5642 5641 5637 5634 5631 5629 5626 5623 5620 5617 5613 5609 5603 5598 5594 5590 5587 5584 5582 5580 5576 5572 5568 5565 5562 5560 5557 5553
5662 5661 5659 5657 5657 5656 5654 5651 5650 5650 5649 5647 5644 5643 5642 5640 5639 5635 5632 5629 5626 5623 5620 5618 5614 5610 5606 5601 5596 5592 5589 5585 5581 5578 5575 5572 5568 5565 5563 5560 5557 5553 5550
5660 5659 5657 5655 5654 5655 5654 5652 5650 5649 5647 5645 5643 5642 5640 5638 5636 5634 5631 5628 5624 5621 5617 5614 5611 5607 5603 5599 5594 5590 5587 5582 5579 5575 5572 5570 5567 5563 5560 5558 5555 5551 5547
5659 5657 5655 5653 5653 5653 5652 5651 5650 5648 5645 5643 5642 5640 5640 5638 5635 5632 5628 5626 5622 5619 5614 5611 5608 5603 5599 5593 5588 5584 5582 5578 5574 5570 5569 5568 5566 5563 5559 5556 5552 5548 5545
5657 5655 5654 5652 5652 5651 5650 5650 5649 5647 5643 5641 5640 5640 5639 5638 5635 5632 5628 5624 5621 5616 5613 5609 5605 5601 5595 5591 5587 5583 5579 5575 5571 5568 5568 5566 5563 5560 5557 5553 5550 5546 5542